ONEWEB-0052 (45156 NORAD) Tracking and Keplerian Element Data

This shows tracking and keplerian element data for the satellite.

Feedback or suggestion? Click here.




ElementValue
Catalog45156
NameONEWEB-0052
Epoch Orbit834
Epoch Day87.88013851
Epoch Year2020
RAAN147.4818
Inclination87.4251
Eccentricity0.0024372
Argument of Perigee125.0913
Mean Anonmoly235.2602
Mean Motion14.82899591
Decay Rate-0.00324997
L11 45156U 20008AB 20087.88013851 -.00324997 00000-0 -41826-1 0 9990
L22 45156 87.4251 147.4818 0024372 125.0913 235.2602 14.82899591 8343

Live tracking and technical data element details for ONEWEB-0052 (NORAD 45156). ONEWEB-0052 can be tracked NOW for your location showing map with azimuth and elevation plus other details from your city location.

Track the satellite on the map from your city or location and see movement details for azimuth, elevation, latitude, longitude, range, height, and movement on the map or in text.







IsCatalogInMostPopularTable: catalog: 45156, numindb: 10
Update: records affected: 1



GetName: 45156 ONEWEB-0052

Hit Count: updated at: Tue, 31 Mar 2020 12:04:39 GMT